Regional Weather Roundup
Issued by NWS

Home | Current Version | Previous Version | Text Only | Print | Product List | Glossary On
Versions: 1 2 3 4 5 6 7 8 9 10 11 12 13 14 15 16 17 18 19 20 21 22 23 24 25 26 27 28 29 30 31 32 33 34 35 36 37 38 39 40 41 42 43 44 45 46 47 48 49 50
000
ASUS43 KOAX 280310
RWRNE

WEATHER ROUNDUP FOR NEBRASKA
NATIONAL WEATHER SERVICE OMAHA NE
1000 PM CDT THU APR 27 2017

NOTES: SATELLITE DATA IS BEING USED TO AUGMENT CLOUD COVER ABOVE
       12000 FEET.
       "FAIR" INDICATES FEW OR NO CLOUDS BELOW 12,000 FEET WITH NO
       SIGNIFICANT WEATHER AND/OR OBSTRUCTIONS TO VISIBILITY.

  * THESE STATIONS DO NOT REPORT WEATHER SUCH AS RAIN...SNOW OR FOG.

NEZ001>004-019>022-054>056-280400-
NEBRASKA PANHANDLE

CITY           SKY/WX    TMP DP  RH WIND       PRES   REMARKS
SCOTTSBLUFF    CLOUDY    43  39  86 N3        29.60R
ALLIANCE       CLOUDY    42  39  89 E16G28    29.59S
CHADRON        LGT RAIN  42  39  89 E14       29.65R
KIMBALL        CLOUDY    38  37  97 CALM      29.61R
SIDNEY         LGT RAIN  40  38  93 NE21G28   29.60F WCI  30
$$

NEZ057>060-069>072-079>082-280400-
SOUTHWEST NEBRASKA

CITY           SKY/WX    TMP DP  RH WIND       PRES   REMARKS
NORTH PLATTE   LGT RAIN  46  42  86 E13       29.65R
IMPERIAL       LGT RAIN  44  41  89 E16       29.58S
LEXINGTON      LGT RAIN  45  42  88 SE12      29.67R
MCCOOK         LGT RAIN  45  42  89 E12       29.63R
OGALLALA       LGT RAIN  46  43  91 E10       29.63R
$$

NEZ005>010-023>029-035>040-094-280400-
NORTH CENTRAL NEBRASKA

CITY           SKY/WX    TMP DP  RH WIND       PRES   REMARKS
VALENTINE      CLOUDY    49  34  56 E9        29.70R
AINSWORTH      DRIZZLE   45  40  85 E9        29.71R
BROKEN BOW     CLOUDY    47  37  68 E7        29.68R
O`NEILL        PTCLDY    44  34  67 E7        29.74R
ORD            CLOUDY    46  38  73 E6        29.70R
THEDFORD       CLOUDY    46  38  73 E9        29.68R
$$

NEZ041-046>049-061>064-073>077-083>087-280400-
SOUTH CENTRAL NEBRASKA

CITY           SKY/WX    TMP DP  RH WIND       PRES   REMARKS
GRAND ISLAND   CLOUDY    47  44  90 SE9       29.72R
AURORA         CLOUDY    47  44  89 S8        29.72R
HASTINGS       CLOUDY    47  43  86 SE10      29.72R
HEBRON         DRIZZLE   47  45  94 E7        29.71F
HOLDREGE       CLOUDY    45  41  85 E15       29.67S
KEARNEY *      CLOUDY    46  39  76 SE10      29.70R
YORK           CLOUDY    48  41  76 S9        29.73S
$$

NEZ011>018-030>034-042>045-280400-
NORTHEAST NEBRASKA

CITY           SKY/WX    TMP DP  RH WIND       PRES   REMARKS
NORFOLK        PTCLDY    46  34  62 E5        29.73R
ALBION         CLOUDY    50  38  63 E9        29.73R
BLAIR          MOCLDY    49  36  60 NE6       29.76R
FREMONT        CLOUDY    50  34  53 NE5       29.76R
TEKAMAH        PTCLDY    47  36  65 NE8       29.77R
WAYNE          CLEAR     37  34  89 NE7       29.76S WCI  32
$$

NEZ050>053-065>068-078-088>093-280400-
SOUTHEAST NEBRASKA

CITY           SKY/WX    TMP DP  RH WIND       PRES   REMARKS
LINCOLN        CLOUDY    52  40  63 S6        29.76R
OMAHA EPPLEY   MOCLDY    51  35  54 E8        29.76R
BEATRICE       DRIZZLE   49  46  89 SE3       29.75R
FALLS CITY     LGT RAIN  50  47  89 S6        29.77R
NEBRASKA CITY  DRIZZLE   53  32  45 CALM      29.77R
PLATTSMOUTH    CLOUDY    54  31  42 CALM      29.76R
$$

NEZ044-045-051>053-067-280400-
OMAHA AREA

CITY           SKY/WX    TMP DP  RH WIND       PRES   REMARKS
OMAHA EPPLEY   MOCLDY    51  35  54 E8        29.76R
BLAIR          MOCLDY    49  36  60 NE6       29.76R
FREMONT        CLOUDY    50  34  53 NE5       29.76R
MILLARD        CLOUDY    53  39  60 CALM      29.76R
OFFUTT AFB     CLOUDY    51  38  60 NE5       29.75R
PLATTSMOUTH    CLOUDY    54  31  42 CALM      29.76R
WAHOO          CLOUDY    51  35  54 S3        29.76R
$$



USA.gov is the U.S. government's official web portal to all federal, state and local government web resources and services.